Skip Page Navigation
NASA JPL Caltech
NASA Logo - Jet Propulsion Laboratory + View the NASA Portal
+ Center for Near-Earth Object Studies
JPL Home Earth Solar System Stars & Galaxies Technology
JPL Solar System Dynamics
BODIES ORBITS EPHEMERIDES TOOLS PHYSICAL DATA DISCOVERY FAQ SITE MAP
IMPORTANT: The SSD Announcement email list is now available. Major changes are coming in the near future, including possible hostname and/or URL changes. To be notified of such changes, subscribe to this email list.

Please visit this page for more details.


JPL Small-Body Database Browser
Search: [ help ]  
413095 (2001 UC56)
Classification: Main-belt Asteroid          SPK-ID: 2413095
Ephemeris | Orbit Diagram | Orbital Elements | Mission Design | Physical Parameters | Discovery Circumstances ]

[ show orbit diagram ]
Orbital Elements at Epoch 2458600.5 (2019-Apr-27.0) TDB
Reference: JPL 12 (heliocentric ecliptic J2000)
 Element Value Uncertainty (1-sigma)   Units 
e .08369820069444574 1.1023e-07  
a 2.178693705979851 1.486e-08 au
q 1.996340962925024 2.4575e-07 au
i 4.615233299228732 1.209e-05 deg
node 8.006025580997109 5.6302e-05 deg
peri 25.06271674784477 6.7276e-05 deg
M 151.5126418892597 3.5902e-05 deg
tp 2458106.144847280992
(2017-Dec-18.64484728)
0.0001159 TDB
period 1174.607298504631
3.22
1.2017e-05
3.29e-08
d
yr
n .3064854104502065 3.1357e-09 deg/d
Q 2.361046449034679 1.6104e-08 au
  Orbit Determination Parameters
   # obs. used (total)      158  
   data-arc span      6412 days (17.56 yr)  
   first obs. used      2001-09-20  
   last obs. used      2019-04-11  
   planetary ephem.      DE431  
   SB-pert. ephem.      SB431-N16  
   condition code      0  
   norm. resid. RMS      .6011  
   source      ORB  
   producer      Otto Matic  
   solution date      2019-Jul-13 15:36:12  

Additional Information
 Earth MOID = 1.00201 au 
 Jupiter MOID = 2.93145 au 
 T_jup = 3.674 
[ show covariance matrix ]

Ephemeris | Orbit Diagram | Orbital Elements | Mission Design | Physical Parameters | Discovery Circumstances ]

Physical Parameter Table
Parameter Symbol Value Units Sigma Reference Notes
absolute magnitude H 17.6   n/a MPO434519  

413095 (2001 UC56)          Discovered 2001-Oct-17 by LINEAR at Socorro
Reference: Last Updated: 2014-11-10
Ephemeris | Orbit Diagram | Orbital Elements | Mission Design | Physical Parameters | Discovery Circumstances ]
ABOUT SSD CREDITS/AWARDS PRIVACY/COPYRIGHT GLOSSARY LINKS
FirstGov
(server date/time)  
NASA Home Page
Site Manager:   Ryan S. Park
Webmaster  Alan B. Chamberlin